Weather in Shchelyabozh

Russia / Komi Republic     66°17′28″N   56°27′06″E
temp.,
°C
wind,
m/s
gust,
m/s
humid.,
%
clouds,
%
prec.,
mm/h
press.,
hPa
HPBL,
m
24 may, tue
tue2400:00+1sse11100100 0.0 100517
03:00+1sse2298100 0.0 1007112
06:00+3sse239499 0.0 1009301
09:00+6se237124 0.0 1011659
12:00+10sse335191 0.1 10121655
15:00+10s124531 0.1 10131453
18:00+11e344953 0.0 10141383
21:00+7e45685 0.0 101553
25 may, wed
wed2500:00+5e47805 0.0 101699
03:00+6e4780100 0.0 1017156
06:00+9e456588 0.0 1018280
09:00+14ene67465 0.0 10171157
12:00+16ese674099 0.0 10162016
15:00+16ese7843100 0.0 10151893
18:00+14e71054100 0.0 10151083
21:00+12e81369100 0.1 1013713
26 may, thu
thu2600:00+11e81482100 0.3 1011434
03:00+12ese91778100 0.4 1009468
06:00+13ese91772100 0.3 1007528
09:00+18ese101459100 0.3 1005660
12:00+21ese101250100 0.0 10041144
15:00+20ese121756100 0.0 10021376
18:00+11s61285100 4.0 1005594
21:00+11s488484 4.0 1005316
27 may, fri
fri2700:00+10sse51093100 0.9 1006479
03:00+8sse4889100 2.1 1007638
06:00+7s477799 0.9 1007700
09:00+8s4677100 1.3 1008771
12:00+8s3477100 2.2 1007689
15:00+8s2383100 3.9 1007328
18:00+9wsw2372100 1.3 1007722
21:00+7ssw2383100 1.3 100638
28 may, sat
sat2800:00+7s4686100 0.1 100798
03:00+6s488699 0.1 1007175
06:00+10sse57655 0.0 1008373
09:00+14se78505 0.0 10081438
12:00+14se695438 0.0 1008949
15:00+15se6115417 0.0 10091348
18:00+15se6106074 0.0 1009344
21:00+13se6107088 0.0 1009178